Decorah, IA

6:53 PM CST on December 05, 2019 (GMT -0600)
Decorah Municipal

Weather History for KDEH - October, 2019

Change the Weather History Date:

Wednesday, October 30, 2019

  Actual Average Record
Temperature  
Mean Temperature 30 °F -  
Max Temperature 33 °F 54 °F 83 °F (1950)
Min Temperature 28 °F 35 °F 11 °F (1988)
Degree Days  
Heating Degree Days 34    
Moisture  
Dew Point 20 °F    
Average Humidity 64    
Maximum Humidity 80    
Minimum Humidity 51    
Precipitation  
Precipitation 0.00 in - - ()
Sea Level Pressure  
Sea Level Pressure 30.24 in    
Wind  
Wind Speed 7 mph ()    
Max Wind Speed 12 mph    
Max Gust Speed 16 mph    
Visibility 9.7 miles    
Events Snow    
Averages and records for this station are not official NWS values.
T = Trace of Precipitation, MM = Missing Value Source: Averaged Metar Reports

Daily Weather History Graph

Daily Weather History Graph

Search for Another Location

Airport or City:

Astronomy

Oct. 30, 2019 Rise Set
Actual Time 7:39 AM CDT 6:01 PM CDT
Civil Twilight 7:09 AM CDT 6:30 PM CDT
Nautical Twilight 6:36 AM CDT 7:04 PM CDT
Astronomical Twilight 6:02 AM CDT 7:37 PM CDT
Moon 10:26 AM CDT (10/30) 8:05 PM CDT (10/30)
Length of Visible Light 11h 21m
Length of Day
10h 22m
Waxing Crescent, 9% of the Moon is Illuminated
Oct 30
Waxing Crescent
Nov 4
First Quarter
Nov 12
Full
Nov 19
Last Quarter
Nov 26
New

Hourly Weather History & Observations

Time (CDT) Temp. Windchill Dew Point Humidity Pressure Visibility Wind Dir Wind Speed Gust Speed Precip Events Conditions
12:15 AM 33.8 °F 27.0 °F 23.0 °F 65% 30.31 in 10.0 mi NNW 8.1 mph - N/A   Overcast
12:35 AM 33.8 °F 27.0 °F 23.0 °F 65% 30.31 in 10.0 mi NNW 8.1 mph - N/A   Overcast
12:55 AM 32.0 °F 24.2 °F 23.0 °F 69% 30.31 in 10.0 mi NNW 9.2 mph - N/A   Overcast
1:15 AM 32.0 °F 24.2 °F 23.0 °F 69% 30.31 in 10.0 mi North 9.2 mph - N/A   Overcast
1:35 AM 32.0 °F 26.4 °F 21.2 °F 64% 30.31 in 10.0 mi North 5.8 mph - N/A   Overcast
1:55 AM 32.0 °F 25.6 °F 21.2 °F 64% 30.31 in 10.0 mi North 6.9 mph - N/A   Mostly Cloudy
2:15 AM 32.0 °F 24.8 °F 21.2 °F 64% 30.31 in 10.0 mi North 8.1 mph - N/A   Scattered Clouds
2:35 AM 32.0 °F 24.8 °F 21.2 °F 64% 30.31 in 10.0 mi North 8.1 mph - N/A   Mostly Cloudy
2:55 AM 32.0 °F 25.6 °F 19.4 °F 60% 30.31 in 10.0 mi North 6.9 mph - N/A   Mostly Cloudy
3:15 AM 32.0 °F 24.2 °F 21.2 °F 64% 30.31 in 10.0 mi North 9.2 mph - N/A   Mostly Cloudy
3:35 AM 30.2 °F 23.4 °F 19.4 °F 64% 30.31 in 10.0 mi North 6.9 mph - N/A   Overcast
3:55 AM 30.2 °F 22.6 °F 19.4 °F 64% 30.31 in 10.0 mi North 8.1 mph - N/A   Mostly Cloudy
4:15 AM 30.2 °F 23.4 °F 19.4 °F 64% 30.30 in 10.0 mi North 6.9 mph - N/A   Mostly Cloudy
4:35 AM 30.2 °F 24.3 °F 19.4 °F 64% 30.30 in 10.0 mi North 5.8 mph - N/A   Scattered Clouds
4:55 AM 30.2 °F 22.6 °F 19.4 °F 64% 30.31 in 10.0 mi NNW 8.1 mph - N/A   Mostly Cloudy
5:15 AM 30.2 °F 23.4 °F 19.4 °F 64% 30.30 in 10.0 mi North 6.9 mph - N/A   Mostly Cloudy
5:35 AM 30.2 °F 23.4 °F 19.4 °F 64% 30.31 in 10.0 mi North 6.9 mph - N/A   Partly Cloudy
5:55 AM 30.2 °F 22.6 °F 19.4 °F 64% 30.32 in 10.0 mi North 8.1 mph - N/A   Scattered Clouds
6:15 AM 30.2 °F 24.3 °F 19.4 °F 64% 30.32 in 10.0 mi NNW 5.8 mph - N/A   Overcast
6:35 AM 28.4 °F 22.2 °F 19.4 °F 69% 30.32 in 10.0 mi NNW 5.8 mph - N/A   Scattered Clouds
6:55 AM 30.2 °F 23.4 °F 21.2 °F 69% 30.32 in 10.0 mi NNW 6.9 mph - N/A   Clear
7:15 AM 28.4 °F 22.2 °F 19.4 °F 69% 30.31 in 10.0 mi North 5.8 mph - N/A   Partly Cloudy
7:35 AM 30.2 °F 23.4 °F 19.4 °F 64% 30.31 in 10.0 mi North 6.9 mph - N/A   Scattered Clouds
7:55 AM 30.2 °F 23.4 °F 21.2 °F 69% 30.31 in 10.0 mi North 6.9 mph - N/A   Mostly Cloudy
8:35 AM 30.2 °F 23.4 °F 19.4 °F 64% 30.32 in 10.0 mi North 6.9 mph - N/A   Overcast
8:55 AM 30.2 °F 22.6 °F 19.4 °F 64% 30.31 in 10.0 mi North 8.1 mph - N/A   Overcast
9:15 AM 30.2 °F 24.3 °F 17.6 °F 60% 30.31 in 10.0 mi North 5.8 mph - N/A   Overcast
9:35 AM 30.2 °F 22.6 °F 19.4 °F 64% 30.30 in 10.0 mi North 8.1 mph - N/A   Scattered Clouds
9:55 AM 30.2 °F 24.3 °F 19.4 °F 64% 30.32 in 10.0 mi North 5.8 mph - N/A   Clear
10:15 AM 30.2 °F 23.4 °F 19.4 °F 64% 30.32 in 10.0 mi North 6.9 mph - N/A   Clear
10:35 AM 30.2 °F 22.6 °F 19.4 °F 64% 30.32 in 10.0 mi NNW 8.1 mph - N/A   Clear
10:55 AM 30.2 °F 22.6 °F 19.4 °F 64% 30.31 in 10.0 mi North 8.1 mph - N/A   Clear
11:15 AM 32.0 °F 24.2 °F 17.6 °F 55% 30.31 in 10.0 mi North 9.2 mph - N/A   Clear
11:35 AM 32.0 °F 24.2 °F 19.4 °F 60% 30.31 in 10.0 mi NNW 9.2 mph - N/A   Clear
11:55 AM 30.2 °F 21.9 °F 19.4 °F 64% 30.31 in 10.0 mi North 9.2 mph - N/A   Clear
12:15 PM 32.0 °F 26.4 °F 19.4 °F 60% 30.30 in 10.0 mi Variable 5.8 mph - N/A   Clear
12:35 PM 30.2 °F 22.6 °F 19.4 °F 64% 30.29 in 9.0 mi NNW 8.1 mph 13.8 mph N/A Snow Light Snow
12:55 PM 32.0 °F 25.6 °F 21.2 °F 64% 30.27 in 9.0 mi NNE 6.9 mph - N/A Snow Light Snow
1:15 PM 32.0 °F 24.2 °F 21.2 °F 64% 30.26 in 10.0 mi NNW 9.2 mph - N/A   Clear
1:35 PM 30.2 °F 22.6 °F 23.0 °F 75% 30.26 in 8.0 mi NNW 8.1 mph - N/A Snow Light Snow
1:55 PM 30.2 °F 22.6 °F 23.0 °F 75% 30.24 in 7.0 mi North 8.1 mph - N/A Snow Light Snow
2:15 PM 30.2 °F 22.6 °F 23.0 °F 75% 30.23 in 10.0 mi North 8.1 mph - N/A Snow Light Snow
2:35 PM 30.2 °F 21.9 °F 23.0 °F 75% 30.22 in 9.0 mi North 9.2 mph - N/A   Clear
2:55 PM 30.2 °F 22.6 °F 23.0 °F 75% 30.21 in 9.0 mi NNW 8.1 mph - N/A   Clear
3:15 PM 30.2 °F 22.6 °F 23.0 °F 75% 30.20 in 9.0 mi NNW 8.1 mph - N/A   Clear
3:35 PM 30.2 °F 22.6 °F 24.8 °F 80% 30.20 in 3.0 mi North 8.1 mph - N/A Snow Light Snow
3:55 PM 30.2 °F 23.4 °F 24.8 °F 80% 30.20 in 7.0 mi North 6.9 mph - N/A Snow Light Snow
4:15 PM 30.2 °F 23.4 °F 24.8 °F 80% 30.19 in 8.0 mi NNW 6.9 mph - N/A   Partly Cloudy
4:35 PM 30.2 °F 24.3 °F 23.0 °F 75% 30.19 in 9.0 mi NNE 5.8 mph - N/A   Scattered Clouds
4:55 PM 32.0 °F 27.5 °F 21.2 °F 64% 30.18 in 10.0 mi North 4.6 mph - N/A   Partly Cloudy
5:15 PM 32.0 °F - 19.4 °F 60% 30.18 in 10.0 mi Calm Calm - N/A   Mostly Cloudy
5:35 PM 32.0 °F 24.8 °F 17.6 °F 55% 30.18 in 10.0 mi North 8.1 mph - N/A   Mostly Cloudy
5:55 PM 32.0 °F 26.4 °F 15.8 °F 51% 30.17 in 10.0 mi North 5.8 mph 11.5 mph N/A   Overcast
6:15 PM 32.0 °F 27.5 °F 15.8 °F 51% 30.17 in 10.0 mi North 4.6 mph - N/A   Overcast
6:35 PM 32.0 °F 23.6 °F 17.6 °F 55% 30.17 in 10.0 mi North 10.4 mph - N/A   Overcast
6:55 PM 32.0 °F 23.6 °F 17.6 °F 55% 30.17 in 10.0 mi NNW 10.4 mph - N/A   Overcast
7:15 PM 32.0 °F 24.2 °F 17.6 °F 55% 30.15 in 10.0 mi NNW 9.2 mph 16.1 mph N/A   Overcast
7:35 PM 30.2 °F 21.9 °F 17.6 °F 60% 30.15 in 10.0 mi NNW 9.2 mph - N/A   Overcast
7:55 PM 30.2 °F 21.3 °F 17.6 °F 60% 30.14 in 10.0 mi NNW 10.4 mph - N/A   Overcast
8:15 PM 30.2 °F 20.8 °F 17.6 °F 60% 30.14 in 10.0 mi NNW 11.5 mph - N/A   Overcast
8:35 PM 30.2 °F 21.9 °F 17.6 °F 60% 30.14 in 10.0 mi North 9.2 mph - N/A   Overcast
8:55 PM 30.2 °F 20.8 °F 17.6 °F 60% 30.13 in 10.0 mi North 11.5 mph - N/A   Overcast
9:15 PM 30.2 °F 21.3 °F 17.6 °F 60% 30.13 in 10.0 mi North 10.4 mph - N/A   Overcast
9:35 PM 30.2 °F 21.9 °F 17.6 °F 60% 30.14 in 10.0 mi NNW 9.2 mph - N/A   Overcast
9:55 PM 30.2 °F 21.9 °F 17.6 °F 60% 30.14 in 10.0 mi NNW 9.2 mph - N/A   Overcast
10:15 PM 30.2 °F 20.8 °F 17.6 °F 60% 30.13 in 10.0 mi NNW 11.5 mph - N/A   Overcast
10:35 PM 30.2 °F 21.3 °F 17.6 °F 60% 30.13 in 10.0 mi NNW 10.4 mph 16.1 mph N/A   Overcast
10:55 PM 30.2 °F 21.3 °F 17.6 °F 60% 30.12 in 10.0 mi NNW 10.4 mph - N/A   Overcast
11:15 PM 30.2 °F 22.6 °F 17.6 °F 60% 30.11 in 10.0 mi NNW 8.1 mph - N/A   Overcast
11:35 PM 30.2 °F 22.6 °F 17.6 °F 60% 30.11 in 10.0 mi NNW 8.1 mph - N/A   Overcast
11:55 PM 30.2 °F 22.6 °F 19.4 °F 64% 30.11 in 10.0 mi NNW 8.1 mph - N/A   Overcast